Starlink 2082

operational
NORAD ID: 47367 Int'l Des: 2021-005 Owner: SPXS Country: US Constellation: starlink
LEOCIRCULARSTARLINK_TYPE

Starlink 2082について

説明を読み込み中...

リアルタイム位置

3D地球を読み込み中...

次回通過

高度履歴

Altitude vs Time

uPlot chart will show altitude changes over time

軌道要素

1 47367U 21005U 25304.24600327 .00003505 00000-0 25401-3 0 9991
2 47367 53.0544 282.7130 0001447 90.9537 269.1618 15.06413133263531
Epoch: Oct 31, 2025 • Age: 5 hours

現在のステータス

高度 547.3 km
速度 7.59 km/s
衛星直下点 6.18°N, 85.75°E
打ち上げ日 Jan 20, 2021
運用期間 4.7 years
タイプ internet

技術仕様

分類 Payload
質量 260.00 kg
乾燥質量 248.00 kg
総質量 260.00 kg
長さ 0.20 m
直径 2.80 m
スパン 9.00 m
形状 Box + pan
製造者 SPXS
バスタイプ Starlink
フェーズステータス In Orbit
所有者/国 SPXS/US

大規模コンステレーション

Loading constellations...